• In Belarus
  • List of Countries
  • For 7 days
  • Water Temperature
  • Satellite Maps
  • Weather Map
  • Weather Widgets
  • user-avatar
    Login

    Hourly Weather Koshelevka

    Today, 17 February, Sunday

    Time Temperature Precipitation Wind Pressure Humidity
    00:00 -4°C° 0 mm 5 mps 738 mmHg 91%
    01:00 -4°C° 0 mm 5 mps 738 mmHg 89%
    02:00 -4°C° 0 mm 4 mps 737 mmHg 88%
    03:00 -5°C° 0 mm 5 mps 736 mmHg 86%
    04:00 -4°C° 0 mm 5 mps 735 mmHg 84%
    05:00 -4°C° 0 mm 6 mps 735 mmHg 82%
    06:00 -4°C° 0 mm 6 mps 734 mmHg 83%
    07:00 -3°C° 0 mm 6 mps 734 mmHg 84%
    08:00 -3°C° 0 mm 7 mps 734 mmHg 86%
    09:00 -3°C° 0 mm 7 mps 733 mmHg 88%
    10:00 -2°C° 0 mm 7 mps 733 mmHg 91%
    11:00 -2°C° 0 mm 6 mps 733 mmHg 94%
    12:00 -2°C° 0 mm 7 mps 733 mmHg 93%
    13:00 -1°C° 0 mm 7 mps 733 mmHg 91%
    14:00 -1°C° 0 mm 7 mps 733 mmHg 90%
    15:00 -2°C° 0 mm 7 mps 733 mmHg 86%
    16:00 -3°C° 0 mm 7 mps 733 mmHg 82%
    17:00 -3°C° 0 mm 7 mps 734 mmHg 78%
    18:00 -3°C° 0.1 mm 7 mps 734 mmHg 79%
    19:00 -3°C° 0.1 mm 7 mps 734 mmHg 79%
    20:00 -4°C° 0.1 mm 7 mps 735 mmHg 80%
    21:00 -4°C° 0 mm 7 mps 735 mmHg 79%
    22:00 -6°C° 0 mm 7 mps 736 mmHg 79%
    23:00 -7°C° 0 mm 7 mps 736 mmHg 79%

    Tomorrow, 18 February, Monday

    Time Temperature Precipitation Wind Pressure Humidity
    00:00 -7°C° 0 mm 7 mps 737 mmHg 79%
    01:00 -7°C° 0 mm 7 mps 737 mmHg 80%
    02:00 -8°C° 0 mm 7 mps 738 mmHg 81%
    03:00 -8°C° 0 mm 7 mps 738 mmHg 81%
    04:00 -8°C° 0 mm 7 mps 739 mmHg 82%
    05:00 -9°C° 0 mm 6 mps 740 mmHg 82%
    06:00 -9°C° 0 mm 6 mps 740 mmHg 81%
    07:00 -9°C° 0 mm 6 mps 741 mmHg 81%
    08:00 -9°C° 0 mm 6 mps 742 mmHg 80%
    09:00 -9°C° 0 mm 7 mps 742 mmHg 79%
    10:00 -9°C° 0 mm 7 mps 743 mmHg 79%
    11:00 -9°C° 0 mm 7 mps 743 mmHg 78%
    12:00 -9°C° 0 mm 6 mps 744 mmHg 79%
    13:00 -9°C° 0 mm 6 mps 745 mmHg 79%
    14:00 -9°C° 0 mm 6 mps 745 mmHg 79%
    15:00 -10°C° 0 mm 5 mps 746 mmHg 81%
    16:00 -11°C° 0 mm 5 mps 746 mmHg 83%
    17:00 -10°C° 0 mm 4 mps 747 mmHg 85%
    18:00 -10°C° 0 mm 3 mps 747 mmHg 86%
    19:00 -12°C° 0 mm 3 mps 748 mmHg 88%
    20:00 -12°C° 0 mm 3 mps 748 mmHg 89%
    21:00 -12°C° 0 mm 2 mps 748 mmHg 90%
    22:00 -12°C° 0 mm 2 mps 749 mmHg 91%
    23:00 -13°C° 0 mm 2 mps 749 mmHg 92%

    Day after tomorrow, 19 February, Tuesday

    Time Temperature Precipitation Wind Pressure Humidity
    00:00 -13°C° 0 mm 2 mps 749 mmHg 92%
    01:00 -11°C° 0 mm 1 mps 749 mmHg 92%
    02:00 -12°C° 0 mm 1 mps 750 mmHg 91%
    03:00 -12°C° 0 mm 1 mps 750 mmHg 91%
    04:00 -14°C° 0 mm 2 mps 750 mmHg 90%
    05:00 -14°C° 0 mm 2 mps 749 mmHg 90%
    06:00 -13°C° 0 mm 2 mps 749 mmHg 89%
    07:00 -14°C° 0 mm 3 mps 749 mmHg 88%
    08:00 -13°C° 0 mm 3 mps 749 mmHg 87%
    09:00 -10°C° 0 mm 3 mps 749 mmHg 85%
    10:00 -10°C° 0 mm 4 mps 749 mmHg 83%
    11:00 -8°C° 0 mm 5 mps 748 mmHg 81%
    12:00 -7°C° 0 mm 5 mps 748 mmHg 80%
    13:00 -6°C° 0 mm 5 mps 747 mmHg 79%
    14:00 -6°C° 0 mm 5 mps 747 mmHg 79%
    15:00 -6°C° 0 mm 5 mps 746 mmHg 79%
    16:00 -7°C° 0 mm 5 mps 746 mmHg 80%
    17:00 -7°C° 0 mm 5 mps 745 mmHg 80%
    18:00 -7°C° 0 mm 5 mps 745 mmHg 81%
    19:00 -8°C° 0 mm 5 mps 744 mmHg 81%
    20:00 -9°C° 0 mm 6 mps 744 mmHg 81%
    21:00 -9°C° 0 mm 6 mps 743 mmHg 81%
    22:00 -9°C° 0 mm 6 mps 743 mmHg 81%
    23:00 -9°C° 0 mm 6 mps 742 mmHg 81%

    20 February, Wednesday

    Time Temperature Precipitation Wind Pressure Humidity
    00:00 -9°C° 0 mm 6 mps 742 mmHg 82%
    01:00 -9°C° 0 mm 6 mps 741 mmHg 82%
    02:00 -9°C° 0 mm 6 mps 741 mmHg 82%
    03:00 -9°C° 0 mm 6 mps 740 mmHg 84%
    04:00 -9°C° 0 mm 6 mps 739 mmHg 85%
    05:00 -9°C° 0 mm 6 mps 738 mmHg 87%
    06:00 -8°C° 0 mm 6 mps 738 mmHg 88%
    07:00 -6°C° 0 mm 6 mps 738 mmHg 89%
    08:00 -5°C° 0 mm 6 mps 737 mmHg 90%
    09:00 -4°C° 0.1 mm 6 mps 737 mmHg 90%
    10:00 -4°C° 0.1 mm 7 mps 737 mmHg 90%
    11:00 -3°C° 0.1 mm 7 mps 737 mmHg 90%
    12:00 -3°C° 0.1 mm 6 mps 736 mmHg 91%
    13:00 -2°C° 0.1 mm 6 mps 736 mmHg 92%
    14:00 -2°C° 0.1 mm 6 mps 736 mmHg 93%
    15:00 -2°C° 0 mm 6 mps 735 mmHg 92%
    16:00 -2°C° 0 mm 6 mps 735 mmHg 92%
    17:00 -2°C° 0 mm 6 mps 735 mmHg 91%
    18:00 -2°C° 0.1 mm 6 mps 735 mmHg 91%
    19:00 -2°C° 0.1 mm 6 mps 734 mmHg 91%
    20:00 -2°C° 0.1 mm 6 mps 734 mmHg 91%
    21:00 -2°C° 0.3 mm 6 mps 734 mmHg 90%
    22:00 -2°C° 0.3 mm 6 mps 733 mmHg 89%
    23:00 -2°C° 0.3 mm 7 mps 733 mmHg 87%

    21 February, Thursday

    Time Temperature Precipitation Wind Pressure Humidity
    00:00 -3°C° 0 mm 6 mps 733 mmHg 86%
    01:00 -5°C° 0 mm 6 mps 733 mmHg 85%
    02:00 -6°C° 0 mm 5 mps 733 mmHg 84%
    03:00 -7°C° 0 mm 5 mps 733 mmHg 85%
    04:00 -7°C° 0 mm 5 mps 733 mmHg 86%
    05:00 -8°C° 0 mm 5 mps 733 mmHg 86%
    06:00 -7°C° 0.1 mm 5 mps 733 mmHg 87%
    07:00 -8°C° 0.1 mm 6 mps 733 mmHg 87%
    08:00 -8°C° 0.1 mm 6 mps 733 mmHg 87%
    09:00 -8°C° 0.1 mm 7 mps 733 mmHg 85%
    10:00 -8°C° 0.1 mm 7 mps 734 mmHg 82%
    11:00 -8°C° 0.1 mm 8 mps 734 mmHg 80%
    12:00 -8°C° 0.1 mm 8 mps 735 mmHg 81%
    13:00 -8°C° 0.1 mm 8 mps 735 mmHg 81%
    14:00 -8°C° 0.1 mm 8 mps 736 mmHg 82%
    15:00 -8°C° 0.1 mm 7 mps 737 mmHg 82%
    16:00 -9°C° 0.1 mm 7 mps 737 mmHg 81%
    17:00 -9°C° 0.1 mm 7 mps 738 mmHg 81%
    18:00 -10°C° 0 mm 6 mps 739 mmHg 82%
    19:00 -10°C° 0 mm 6 mps 740 mmHg 82%
    20:00 -11°C° 0 mm 6 mps 741 mmHg 83%
    21:00 -11°C° 0 mm 6 mps 741 mmHg 83%
    22:00 -12°C° 0 mm 5 mps 742 mmHg 83%
    23:00 -13°C° 0 mm 5 mps 742 mmHg 83%

    22 February, Friday

    Time Temperature Precipitation Wind Pressure Humidity
    00:00 -13°C° 0 mm 5 mps 742 mmHg 84%
    01:00 -14°C° 0 mm 5 mps 743 mmHg 84%
    02:00 -14°C° 0 mm 5 mps 743 mmHg 85%
    03:00 -15°C° 0 mm 5 mps 743 mmHg 85%
    04:00 -15°C° 0 mm 5 mps 744 mmHg 85%
    05:00 -15°C° 0 mm 5 mps 744 mmHg 86%
    06:00 -15°C° 0 mm 5 mps 744 mmHg 85%
    07:00 -15°C° 0 mm 5 mps 745 mmHg 85%
    08:00 -15°C° 0 mm 5 mps 745 mmHg 84%
    09:00 -15°C° 0.1 mm 6 mps 745 mmHg 82%
    10:00 -15°C° 0.1 mm 6 mps 746 mmHg 80%
    11:00 -15°C° 0.1 mm 7 mps 746 mmHg 79%
    12:00 -14°C° 0 mm 7 mps 746 mmHg 78%
    13:00 -13°C° 0 mm 7 mps 747 mmHg 78%
    14:00 -13°C° 0 mm 7 mps 747 mmHg 78%
    15:00 -13°C° 0 mm 7 mps 747 mmHg 78%
    16:00 -12°C° 0 mm 6 mps 748 mmHg 78%
    17:00 -12°C° 0 mm 6 mps 748 mmHg 78%
    18:00 -12°C° 0 mm 6 mps 749 mmHg 79%
    19:00 -12°C° 0 mm 6 mps 750 mmHg 80%
    20:00 -14°C° 0 mm 6 mps 750 mmHg 81%
    21:00 -14°C° 0 mm 5 mps 751 mmHg 83%
    22:00 -14°C° 0 mm 5 mps 751 mmHg 85%
    23:00 -15°C° 0 mm 4 mps 751 mmHg 87%
    Show more